When you browse on this site, cookies collect data to enhance your experience and personalize the content and advertising you see.
Visit our Privacy Policy to learn more. By continuing to use the site, you agree to this use of cookies and data.
  • In Hungary
  • List of Countries
  • For 7 days
  • Water Temperature
  • Weather Map
  • News
  • Weather Widgets
  • user-avatar
    Login

    Hourly Weather Fedotevo

    Today, 26 January, Sunday

    Time Temperature Precipitation Wind Pressure Humidity
    00:00 -5°C° 0 mm 6 mps 740 mmHg 80%
    01:00 -5°C° 0 mm 6 mps 740 mmHg 81%
    02:00 -5°C° 0 mm 6 mps 740 mmHg 81%
    03:00 -5°C° 0 mm 6 mps 741 mmHg 82%
    04:00 -5°C° 0 mm 6 mps 742 mmHg 82%
    05:00 -5°C° 0 mm 6 mps 743 mmHg 82%
    06:00 -5°C° 0 mm 6 mps 744 mmHg 82%
    07:00 -5°C° 0 mm 5 mps 744 mmHg 81%
    08:00 -5°C° 0 mm 5 mps 745 mmHg 81%
    09:00 -6°C° 0 mm 5 mps 746 mmHg 83%
    10:00 -6°C° 0 mm 5 mps 747 mmHg 82%
    11:00 -5°C° 0 mm 5 mps 747 mmHg 80%
    12:00 -5°C° 0 mm 6 mps 748 mmHg 79%
    13:00 -5°C° 0 mm 5 mps 748 mmHg 78%
    14:00 -4°C° 0 mm 5 mps 748 mmHg 77%
    15:00 -4°C° 0 mm 5 mps 748 mmHg 76%
    16:00 -5°C° 0 mm 5 mps 748 mmHg 79%
    17:00 -4°C° 0 mm 4 mps 748 mmHg 83%
    18:00 -4°C° 0 mm 4 mps 748 mmHg 86%
    19:00 -4°C° 0 mm 4 mps 748 mmHg 87%
    20:00 -5°C° 0 mm 5 mps 747 mmHg 88%
    21:00 -5°C° 0 mm 5 mps 747 mmHg 89%
    22:00 -4°C° 0.1 mm 6 mps 746 mmHg 90%
    23:00 -4°C° 0.1 mm 6 mps 746 mmHg 90%

    Tomorrow, 27 January, Monday

    Time Temperature Precipitation Wind Pressure Humidity
    00:00 -3°C° 0.1 mm 7 mps 745 mmHg 90%
    01:00 -2°C° 0.2 mm 7 mps 745 mmHg 92%
    02:00 -2°C° 0.2 mm 7 mps 744 mmHg 94%
    03:00 -1°C° 0.2 mm 8 mps 744 mmHg 95%
    04:00 -1°C° 0.1 mm 7 mps 744 mmHg 95%
    05:00 -1°C° 0.1 mm 7 mps 745 mmHg 95%
    06:00 0°C° 0.1 mm 7 mps 745 mmHg 94%
    07:00 -1°C° 0.2 mm 6 mps 746 mmHg 93%
    08:00 -1°C° 0.2 mm 5 mps 746 mmHg 91%
    09:00 -1°C° 0.2 mm 4 mps 747 mmHg 89%
    10:00 -2°C° 0 mm 4 mps 748 mmHg 86%
    11:00 -2°C° 0 mm 4 mps 749 mmHg 82%
    12:00 -3°C° 0 mm 4 mps 750 mmHg 78%
    13:00 -2°C° 0 mm 3 mps 750 mmHg 77%
    14:00 -2°C° 0 mm 2 mps 751 mmHg 75%
    15:00 -3°C° 0 mm 2 mps 751 mmHg 74%
    16:00 -3°C° 0 mm 2 mps 752 mmHg 75%
    17:00 -2°C° 0 mm 1 mps 752 mmHg 76%
    18:00 -3°C° 0 mm 1 mps 753 mmHg 78%
    19:00 -3°C° 0 mm 1 mps 753 mmHg 78%
    20:00 -5°C° 0 mm 2 mps 753 mmHg 78%
    21:00 -5°C° 0 mm 2 mps 754 mmHg 78%
    22:00 -5°C° 0 mm 2 mps 754 mmHg 77%
    23:00 -6°C° 0 mm 3 mps 754 mmHg 77%

    Day after tomorrow, 28 January, Tuesday

    Time Temperature Precipitation Wind Pressure Humidity
    00:00 -6°C° 0 mm 3 mps 754 mmHg 76%
    01:00 -7°C° 0 mm 3 mps 754 mmHg 79%
    02:00 -8°C° 0 mm 4 mps 753 mmHg 83%
    03:00 -8°C° 0 mm 4 mps 753 mmHg 86%
    04:00 -8°C° 0.3 mm 4 mps 753 mmHg 88%
    05:00 -8°C° 0.3 mm 5 mps 753 mmHg 91%
    06:00 -8°C° 0.3 mm 5 mps 752 mmHg 93%
    07:00 -8°C° 0.4 mm 5 mps 752 mmHg 93%
    08:00 -8°C° 0.4 mm 5 mps 752 mmHg 94%
    09:00 -8°C° 0.4 mm 5 mps 752 mmHg 94%
    10:00 -7°C° 0.4 mm 5 mps 752 mmHg 94%
    11:00 -7°C° 0.4 mm 5 mps 752 mmHg 93%
    12:00 -6°C° 0.4 mm 5 mps 751 mmHg 93%
    13:00 -5°C° 0.2 mm 4 mps 751 mmHg 94%
    14:00 -4°C° 0.2 mm 4 mps 751 mmHg 94%
    15:00 -3°C° 0.2 mm 4 mps 751 mmHg 94%
    16:00 -3°C° 0.3 mm 4 mps 750 mmHg 95%
    17:00 -3°C° 0.3 mm 4 mps 750 mmHg 96%
    18:00 -2°C° 0.3 mm 4 mps 750 mmHg 97%
    19:00 -2°C° 0.3 mm 4 mps 750 mmHg 97%
    20:00 -2°C° 0.3 mm 4 mps 750 mmHg 97%
    21:00 -1°C° 0.3 mm 4 mps 750 mmHg 97%
    22:00 -1°C° 0.2 mm 4 mps 750 mmHg 97%
    23:00 -1°C° 0.2 mm 4 mps 750 mmHg 97%

    29 January, Wednesday

    Time Temperature Precipitation Wind Pressure Humidity
    00:00 -1°C° 0.2 mm 4 mps 750 mmHg 97%
    01:00 -1°C° 0.1 mm 4 mps 750 mmHg 97%
    02:00 -2°C° 0.1 mm 4 mps 750 mmHg 96%
    03:00 -2°C° 0.1 mm 4 mps 750 mmHg 96%
    04:00 -1°C° 0 mm 3 mps 750 mmHg 96%
    05:00 -1°C° 0 mm 3 mps 750 mmHg 95%
    06:00 -1°C° 0 mm 3 mps 749 mmHg 95%
    07:00 -1°C° 0 mm 3 mps 749 mmHg 96%
    08:00 -1°C° 0 mm 3 mps 749 mmHg 97%
    09:00 -1°C° 0 mm 3 mps 749 mmHg 97%
    10:00 -1°C° 0 mm 3 mps 749 mmHg 98%
    11:00 0°C° 0 mm 3 mps 749 mmHg 98%
    12:00 -1°C° 0 mm 4 mps 749 mmHg 99%
    13:00 -1°C° 0.1 mm 4 mps 749 mmHg 99%
    14:00 -1°C° 0.1 mm 4 mps 749 mmHg 98%
    15:00 -1°C° 0.1 mm 4 mps 748 mmHg 98%
    16:00 -1°C° 0.1 mm 4 mps 748 mmHg 98%
    17:00 -2°C° 0.1 mm 5 mps 748 mmHg 97%
    18:00 -2°C° 0.1 mm 5 mps 747 mmHg 97%
    19:00 -2°C° 0.4 mm 5 mps 747 mmHg 97%
    20:00 -2°C° 0.4 mm 5 mps 747 mmHg 96%
    21:00 -4°C° 0.4 mm 6 mps 746 mmHg 96%
    22:00 -4°C° 0.3 mm 6 mps 746 mmHg 96%
    23:00 -5°C° 0.3 mm 5 mps 745 mmHg 95%

    30 January, Thursday

    Time Temperature Precipitation Wind Pressure Humidity
    00:00 -5°C° 0.3 mm 5 mps 745 mmHg 95%
    01:00 -5°C° 0.4 mm 5 mps 744 mmHg 95%
    02:00 -5°C° 0.4 mm 5 mps 744 mmHg 95%
    03:00 -5°C° 0.4 mm 5 mps 743 mmHg 96%
    04:00 -4°C° 0.3 mm 5 mps 743 mmHg 96%
    05:00 -2°C° 0.3 mm 5 mps 742 mmHg 97%
    06:00 -1°C° 0.3 mm 5 mps 741 mmHg 97%
    07:00 -1°C° 0.5 mm 5 mps 741 mmHg 98%
    08:00 0°C° 0.5 mm 5 mps 740 mmHg 98%
    09:00 0°C° 0.5 mm 5 mps 740 mmHg 98%
    10:00 -1°C° 0.3 mm 6 mps 740 mmHg 97%
    11:00 -1°C° 0.3 mm 6 mps 740 mmHg 96%
    12:00 -2°C° 0.3 mm 6 mps 740 mmHg 95%
    13:00 -2°C° 0 mm 6 mps 740 mmHg 91%
    14:00 -2°C° 0 mm 6 mps 741 mmHg 87%
    15:00 -2°C° 0 mm 6 mps 741 mmHg 83%
    16:00 -2°C° 0 mm 5 mps 742 mmHg 84%
    17:00 -2°C° 0 mm 5 mps 742 mmHg 85%
    18:00 -4°C° 0 mm 5 mps 743 mmHg 86%
    19:00 -4°C° 0 mm 5 mps 743 mmHg 86%
    20:00 -4°C° 0 mm 5 mps 743 mmHg 86%
    21:00 -4°C° 0 mm 5 mps 743 mmHg 85%
    22:00 -3°C° 0 mm 4 mps 743 mmHg 87%
    23:00 -3°C° 0 mm 4 mps 743 mmHg 89%

    31 January, Friday

    Time Temperature Precipitation Wind Pressure Humidity
    00:00 -4°C° 0 mm 4 mps 744 mmHg 91%
    01:00 -4°C° 0 mm 4 mps 743 mmHg 92%
    02:00 -5°C° 0 mm 4 mps 743 mmHg 93%
    03:00 -5°C° 0 mm 4 mps 743 mmHg 94%
    04:00 -5°C° 0 mm 4 mps 743 mmHg 94%
    05:00 -5°C° 0 mm 4 mps 743 mmHg 94%
    06:00 -5°C° 0 mm 4 mps 743 mmHg 94%
    07:00 -5°C° 0 mm 3 mps 743 mmHg 93%
    08:00 -5°C° 0 mm 3 mps 743 mmHg 92%
    09:00 -5°C° 0 mm 3 mps 743 mmHg 91%
    10:00 -4°C° 0 mm 3 mps 743 mmHg 90%
    11:00 -2°C° 0 mm 3 mps 742 mmHg 89%
    12:00 -2°C° 0 mm 3 mps 742 mmHg 88%
    13:00 -2°C° 0.1 mm 3 mps 742 mmHg 90%
    14:00 -1°C° 0.1 mm 3 mps 742 mmHg 92%
    15:00 -1°C° 0.1 mm 3 mps 742 mmHg 93%
    16:00 -2°C° 0.4 mm 3 mps 742 mmHg 95%
    17:00 -2°C° 0.4 mm 3 mps 742 mmHg 96%
    18:00 -2°C° 0.4 mm 3 mps 742 mmHg 97%
    19:00 -2°C° 0.3 mm 3 mps 742 mmHg 97%
    20:00 -2°C° 0.3 mm 2 mps 742 mmHg 98%
    21:00 -2°C° 0.3 mm 2 mps 742 mmHg 98%
    22:00 -2°C° 0.3 mm 2 mps 742 mmHg 98%
    23:00 -2°C° 0.3 mm 2 mps 742 mmHg 98%
    Show more